GSAT-16

Last updated on Wed Sep 09 2026 00:03:00 GMT+0000 (Coordinated Universal Time)

1 40332U 14078A 26251.45599987 .00000064 00000+0 00000+0 0 9992 2 40332 0.0403 263.8456 0005755 206.5485 96.3768 1.00271974 42957
UTC large
Height (km)
Speed (km/s)
/
Latitude / Longitude
Inclination (degrees)
Orbital Period (minutes)
Azimuth
Elevation
Range (km)
Doppler Factor

Next 0 passes for location: London (51.5072 / 0.1276)

No passes found over London.
GSAT-16